This is the latest recevied weather packets stored in our database for station/object KD5VOO. If no packets are shown the sender has not sent any weather packets the latest 1 day(s).
| Time | Temp. | Humidity | Pressure | Rain* | Wind** | Luminosity | Snow |
|---|---|---|---|---|---|---|---|
| 1778025463 | 26.67° C | 59% | 1007.5 hPa | 0 mm | 0.89 m/s, 183° | 23 W/m² | - |
| 1778025161 | 26.67° C | 59% | 1007.5 hPa | 0 mm | 3.58 m/s, 237° | 24 W/m² | - |
| 1778024857 | 26.67° C | 58% | 1007.5 hPa | 0 mm | 2.24 m/s, 165° | 30 W/m² | - |
| 1778024555 | 27.22° C | 57% | 1007.5 hPa | 0 mm | 0.89 m/s, 172° | 38 W/m² | - |
| 1778024251 | 27.22° C | 57% | 1007.1 hPa | 0 mm | 2.24 m/s, 198° | 30 W/m² | - |
| 1778023950 | 27.22° C | 57% | 1007.1 hPa | 0 mm | 3.13 m/s, 273° | 36 W/m² | - |
| 1778023646 | 27.22° C | 57% | 1007.5 hPa | 0 mm | 1.79 m/s, 226° | 24 W/m² | - |
| 1778023344 | 27.22° C | 57% | 1007.1 hPa | 0 mm | 0.89 m/s, 196° | 22 W/m² | - |
| 1778023040 | 27.78° C | 56% | 1007.5 hPa | 0 mm | 1.79 m/s, 195° | 21 W/m² | - |
| 1778022739 | 27.78° C | 56% | 1007.5 hPa | 0 mm | 3.58 m/s, 286° | 17 W/m² | - |
| 1778022437 | 27.78° C | 56% | 1007.5 hPa | 0 mm | 0 m/s | 20 W/m² | - |
| 1778022133 | 27.78° C | 56% | 1007.1 hPa | 0 mm | 0.89 m/s, 211° | 35 W/m² | - |
| 1778021830 | 27.78° C | 55% | 1007.1 hPa | 0 mm | 0.89 m/s, 196° | 86 W/m² | - |
| 1778021527 | 27.78° C | 55% | 1007.1 hPa | 0 mm | 1.34 m/s, 200° | 67 W/m² | - |
| 1778021222 | 27.78° C | 55% | 1007.5 hPa | 0 mm | 0 m/s | 84 W/m² | - |
| 1778020920 | 27.78° C | 56% | 1007.5 hPa | 0 mm | 0.89 m/s, 177° | 84 W/m² | - |
| 1778020618 | 27.78° C | 55% | 1007.5 hPa | 0 mm | 1.79 m/s, 209° | 74 W/m² | - |
| 1778020313 | 27.78° C | 55% | 1007.5 hPa | 0 mm | 3.58 m/s, 200° | 150 W/m² | - |
| 1778020009 | 27.78° C | 55% | 1007.5 hPa | 0 mm | 4.02 m/s, 208° | 134 W/m² | - |
| 1778019706 | 27.22° C | 55% | 1007.5 hPa | 0 mm | 1.34 m/s, 234° | 90 W/m² | - |
| 1778019403 | 27.22° C | 56% | 1007.5 hPa | 0 mm | 0.89 m/s, 176° | 80 W/m² | - |
| 1778019099 | 27.22° C | 56% | 1007.8 hPa | 0 mm | 0.89 m/s, 242° | 86 W/m² | - |
| 1778018797 | 27.78° C | 56% | 1007.8 hPa | 0 mm | 2.24 m/s, 211° | 90 W/m² | - |
| 1778018495 | 27.78° C | 56% | 1007.8 hPa | 0 mm | 1.79 m/s, 293° | 51 W/m² | - |
| 1778018192 | 27.78° C | 56% | 1007.8 hPa | 0 mm | 2.24 m/s, 239° | 44 W/m² | - |
* Rain latest hour (hover to see other rain measurements)
** Current wind speed in m/s (hover to see current wind gust speed)